Location: Blue Mountain Vista Observatory
(40.6992°N, 75.9422°W)
Time: 20:23:31
(UTC-04:00)

Amateur Radio Satellites - All Passes

Search period start: 01 August 2014 19:53
Search period end: 02 August 2014 19:53
Location: Blue Mountain Vista Observatory, 40.6992°N, 75.9422°W

Satellite Date Start Highest point End Downlink Frequencies (MHz)
Time Altitude Azimuth
SO-67 01 Aug 19:56:20 19:59:33 36° 262° (W) 20:02:47 435.3500 MHz FM
MaSat-1 01 Aug 20:09:14 20:12:55 32° 106° (ESE) 20:17:07 437.345 MHz
RS-15 01 Aug 20:12:21 20:21:50 32° 33° (NNE) 20:31:29 29.354 - 29.394 USB, Beacon 29.352 USB
HO-68 01 Aug 20:32:32 20:39:17 47° 66° (ENE) 20:46:02 435.675 MHz FM
Oscar 11 01 Aug 20:43:26 20:45:07 12° 63° (ENE) 20:46:49 145.825 FM, Beacon 2401.500 USB
UOSAT-12 01 Aug 21:03:37 21:06:16 15° 38° (NE) 21:08:55 437.025 FM, 437.400 FM
SO-50 01 Aug 21:04:18 21:09:02 69° 240° (WSW) 21:13:50 436.795 FM
STRAND 1 01 Aug 21:14:05 21:17:46 20° 297° (WNW) 21:21:26 ?
ISS 01 Aug 21:16:53 21:18:43 14° 130° (SE) 21:20:33 145.800 FM
UKube-1 01 Aug 21:35:40 21:40:02 89° 253° (WSW) 21:44:26 145.840 MHz, 145.915 MHz
MaSat-1 01 Aug 21:46:34 21:50:15 26° 307° (NW) 21:54:21 437.345 MHz
Oscar 11 01 Aug 22:16:30 22:20:45 64° 259° (W) 22:25:03 145.825 FM, Beacon 2401.500 USB
HO-68 01 Aug 22:20:45 22:27:06 34° 263° (W) 22:33:29 435.675 MHz FM
RS-15 01 Aug 22:24:40 22:35:47 90° 59° (ENE) 22:47:19 29.354 - 29.394 USB, Beacon 29.352 USB
UOSAT-12 01 Aug 22:42:23 22:47:08 87° 58° (ENE) 22:51:49 437.025 FM, 437.400 FM
Sapphire 01 Aug 22:46:48 22:48:40 12° 102° (ESE) 22:50:32 437.095 MHz 1200 baud AX-25 AFSK
FUNcube-1 01 Aug 22:49:31 22:53:48 76° 258° (WSW) 22:58:01 145.950 - 145.970 MHz USB
ISS 01 Aug 22:51:45 22:55:03 64° 326° (NW) 22:58:23 145.800 FM
PCSat 01 Aug 23:16:51 23:21:14 26° 108° (ESE) 23:25:38 145.825 MHz
Sapphire 02 Aug 00:25:52 00:31:16 87° 299° (WNW) 00:36:43 437.095 MHz 1200 baud AX-25 AFSK
UOSAT-12 02 Aug 00:26:18 00:26:32 10° 254° (WSW) 00:26:46 437.025 FM, 437.400 FM
ISS 02 Aug 00:30:00 00:32:17 17° 345° (NNW) 00:34:35 145.800 FM
RS-15 02 Aug 00:38:54 00:46:40 22° 259° (W) 00:54:40 29.354 - 29.394 USB, Beacon 29.352 USB
Oscar 10/S400 02 Aug 00:49:50 01:22:28 65° 183° (S) 10:30:04 145.825 - 145.975 CW/USB, Beacon 145.810 USB
PCSat 02 Aug 00:59:13 01:04:22 44° 305° (NW) 01:09:34 145.825 MHz
AO-40 02 Aug 01:06:05 03:42:28 22° 123° (ESE) 04:57:24 Beacon 2401.320
Oscar 16 02 Aug 01:16:14 01:17:46 11° 89° (E) 01:19:18 437.025 USB, Beacon 2401.1428
Uribyol 2 02 Aug 02:03:11 02:06:06 15° 91° (E) 02:09:00 436.500 FM
AO-27 02 Aug 02:05:13 02:08:10 15° 91° (E) 02:11:06 436.795 MHz FM
AO-Echo 02 Aug 02:07:30 02:10:30 16° 91° (E) 02:13:27 ?
ISS 02 Aug 02:08:21 02:10:03 13° 5° (N) 02:11:45 145.800 FM
Sapphire 02 Aug 02:12:17 02:15:30 16° 318° (NW) 02:18:44 437.095 MHz 1200 baud AX-25 AFSK
Oscar 19 02 Aug 02:23:26 02:28:29 51° 100° (E) 02:33:30 437.125 CW, 437.150 USB
OPAL 02 Aug 02:43:55 02:45:56 13° 57° (ENE) 02:47:58 ?
Gurwin Techsat 1B 02 Aug 02:51:29 02:55:02 18° 92° (E) 02:58:34 435.225 FM
Oscar 16 02 Aug 02:52:31 02:57:43 82° 285° (WNW) 03:02:54 437.025 USB, Beacon 2401.1428
JAS-1B 02 Aug 02:52:48 03:00:58 37° 92° (E) 03:07:58 435.800 - 435.900 CW/SSB
ITAMSAT 1 02 Aug 03:22:29 03:27:42 83° 104° (ESE) 03:32:51 435.822 SSB
Uribyol 2 02 Aug 03:40:53 03:46:00 63° 287° (WNW) 03:51:05 436.500 FM
AO-27 02 Aug 03:42:58 03:48:06 63° 287° (WNW) 03:53:12 436.795 MHz FM
ISS 02 Aug 03:44:40 03:47:37 28° 25° (NNE) 03:50:34 145.800 FM
AO-Echo 02 Aug 03:44:46 03:49:40 55° 288° (WNW) 03:54:23 ?
TMSAT-1 02 Aug 04:02:46 04:08:01 61° 101° (E) 04:13:14 436.925 FM
Oscar 19 02 Aug 04:03:42 04:07:26 20° 296° (WNW) 04:11:09 437.125 CW, 437.150 USB
Uosat F 02 Aug 04:08:39 04:11:11 14° 91° (E) 04:13:41 435.120 FM
PANSAT 02 Aug 04:12:14 04:14:02 13° 175° (S) 04:15:51 not established
OPAL 02 Aug 04:19:11 04:24:07 84° 254° (WSW) 04:29:07 ?
MaSat-1 02 Aug 04:28:43 04:31:09 13° 44° (NE) 04:33:32 437.345 MHz
Gurwin Techsat 1B 02 Aug 04:30:09 04:35:20 56° 288° (WNW) 04:40:30 435.225 FM
AO-7 02 Aug 04:31:20 04:38:25 30° 96° (E) 04:45:24 29.400 - 29.500 MHz
Oscar 16 02 Aug 04:35:04 04:36:13 11° 302° (WNW) 04:37:23 437.025 USB, Beacon 2401.1428
KITSAT 1 02 Aug 04:36:52 04:43:23 28° 105° (ESE) 04:49:54 435.175 FM
JAS-1B 02 Aug 04:42:57 04:51:44 51° 294° (WNW) 04:59:13 435.800 - 435.900 CW/SSB
ITAMSAT 1 02 Aug 05:04:11 05:06:28 13° 301° (WNW) 05:08:45 435.822 SSB
ISS 02 Aug 05:21:13 05:24:25 42° 222° (SW) 05:27:37 145.800 FM
Saudisat 1A 02 Aug 05:39:28 05:41:41 14° 109° (ESE) 05:43:54 436.775 MHz
TMSAT-1 02 Aug 05:43:58 05:47:26 18° 298° (WNW) 05:50:53 436.925 FM
Uosat F 02 Aug 05:45:26 05:50:25 66° 287° (WNW) 05:55:21 435.120 FM
PANSAT 02 Aug 05:52:02 05:53:28 12° 188° (S) 05:54:54 not established
MaSat-1 02 Aug 06:04:07 06:09:25 75° 63° (ENE) 06:14:19 437.345 MHz
AO-7 02 Aug 06:23:27 06:31:35 60° 294° (WNW) 06:39:40 29.400 - 29.500 MHz
KITSAT 1 02 Aug 06:30:07 06:38:09 66° 304° (NW) 06:46:14 435.175 FM
JAS-1B 02 Aug 06:36:43 06:39:49 12° 317° (NW) 06:42:48 435.800 - 435.900 CW/SSB
Hamsat 02 Aug 06:48:50 06:53:04 51° 99° (E) 06:57:18 145.90 MHz
STRAND 1 02 Aug 06:49:32 06:54:38 70° 74° (ENE) 06:59:46 ?
JAS-2 02 Aug 06:52:13 06:57:34 40° 97° (E) 07:02:29 435.800 - 435.900 CW/SSB, 435.910 FM
Saudisat 1A 02 Aug 07:16:23 07:20:45 62° 305° (NW) 07:25:09 436.775 MHz
SO-67 02 Aug 07:21:24 07:23:26 15° 93° (E) 07:25:28 435.3500 MHz FM
Sapphire 02 Aug 07:32:40 07:35:11 13° 39° (NE) 07:37:41 437.095 MHz 1200 baud AX-25 AFSK
MaSat-1 02 Aug 07:43:32 07:45:56 13° 262° (W) 07:48:15 437.345 MHz
PCSat 02 Aug 08:04:30 08:08:45 23° 47° (NE) 08:12:58 145.825 MHz
AO-7 02 Aug 08:18:57 08:22:40 14° 315° (NW) 08:26:23 29.400 - 29.500 MHz
Hamsat 02 Aug 08:26:11 08:28:36 15° 295° (WNW) 08:31:02 145.90 MHz
KITSAT 1 02 Aug 08:29:43 08:35:15 19° 328° (NNW) 08:40:48 435.175 FM
STRAND 1 02 Aug 08:31:51 08:34:19 13° 270° (W) 08:36:47 ?
JAS-2 02 Aug 08:37:47 08:42:25 26° 297° (WNW) 08:46:43 435.800 - 435.900 CW/SSB, 435.910 FM
SO-67 02 Aug 08:53:31 08:56:34 29° 288° (WNW) 08:59:36 435.3500 MHz FM
Saudisat 1A 02 Aug 09:00:37 09:01:15 10° 325° (NW) 09:01:52 436.775 MHz
Sapphire 02 Aug 09:14:12 09:19:38 70° 59° (ENE) 09:25:01 437.095 MHz 1200 baud AX-25 AFSK
UKube-1 02 Aug 09:25:39 09:28:17 16° 93° (E) 09:30:54 145.840 MHz, 145.915 MHz
PCSat 02 Aug 09:47:13 09:52:33 59° 246° (WSW) 09:57:51 145.825 MHz
HO-68 02 Aug 09:47:42 09:54:35 49° 100° (E) 10:01:25 435.675 MHz FM
Oscar 11 02 Aug 10:04:58 10:08:28 23° 95° (E) 10:11:56 145.825 FM, Beacon 2401.500 USB
FUNcube-1 02 Aug 10:39:37 10:42:44 20° 94° (E) 10:45:53 145.950 - 145.970 MHz USB
RS-15 02 Aug 10:46:14 10:48:09 11° 95° (E) 10:50:03 29.354 - 29.394 USB, Beacon 29.352 USB
Sapphire 02 Aug 10:59:17 11:02:25 16° 256° (WSW) 11:05:32 437.095 MHz 1200 baud AX-25 AFSK
UKube-1 02 Aug 11:00:33 11:04:43 45° 288° (WNW) 11:08:50 145.840 MHz, 145.915 MHz
SO-50 02 Aug 11:19:12 11:23:22 41° 116° (ESE) 11:27:38 436.795 FM
HO-68 02 Aug 11:35:50 11:42:02 33° 298° (WNW) 11:48:13 435.675 MHz FM
Oscar 11 02 Aug 11:40:50 11:44:39 30° 290° (WNW) 11:48:27 145.825 FM, Beacon 2401.500 USB
FUNcube-1 02 Aug 12:15:26 12:19:12 33° 289° (WNW) 12:23:01 145.950 - 145.970 MHz USB
KITSAT 1 02 Aug 12:29:10 12:34:22 18° 30° (NNE) 12:39:32 435.175 FM
Oscar 16 02 Aug 12:32:12 12:35:32 18° 62° (ENE) 12:38:53 437.025 USB, Beacon 2401.1428
RS-15 02 Aug 12:47:12 12:58:05 62° 114° (ESE) 13:08:45 29.354 - 29.394 USB, Beacon 29.352 USB
UOSAT-12 02 Aug 12:53:49 12:57:43 28° 113° (ESE) 13:01:41 437.025 FM, 437.400 FM
SO-50 02 Aug 13:00:24 13:04:04 24° 314° (NW) 13:07:50 436.795 FM
ITAMSAT 1 02 Aug 13:03:29 13:06:32 16° 61° (ENE) 13:09:36 435.822 SSB
AO-Echo 02 Aug 13:19:29 13:23:36 23° 65° (ENE) 13:27:42 ?
Uribyol 2 02 Aug 13:20:28 13:24:32 24° 65° (ENE) 13:28:36 436.500 FM
AO-27 02 Aug 13:22:44 13:26:51 24° 65° (ENE) 13:30:58 436.795 MHz FM
JAS-1B 02 Aug 13:34:48 13:42:57 36° 60° (ENE) 13:51:31 435.800 - 435.900 CW/SSB
Oscar 19 02 Aug 13:40:01 13:45:06 71° 74° (ENE) 13:50:13 437.125 CW, 437.150 USB
TMSAT-1 02 Aug 13:47:20 13:49:25 12° 59° (ENE) 13:51:29 436.925 FM
Saudisat 1A 02 Aug 14:05:16 14:07:37 14° 40° (NE) 14:09:59 436.775 MHz
Oscar 16 02 Aug 14:09:23 14:14:25 58° 259° (W) 14:19:29 437.025 USB, Beacon 2401.1428
Gurwin Techsat 1B 02 Aug 14:12:04 14:16:32 28° 66° (ENE) 14:21:01 435.225 FM
KITSAT 1 02 Aug 14:23:40 14:31:40 59° 54° (NE) 14:39:35 435.175 FM
UOSAT-12 02 Aug 14:33:30 14:37:44 35° 311° (NW) 14:42:04 437.025 FM, 437.400 FM
ITAMSAT 1 02 Aug 14:40:16 14:45:27 68° 258° (WSW) 14:50:40 435.822 SSB
AO-Echo 02 Aug 14:56:57 15:02:02 46° 261° (W) 15:07:09 ?
Uribyol 2 02 Aug 14:58:49 15:03:44 43° 261° (W) 15:08:40 436.500 FM
RS-15 02 Aug 15:00:38 15:10:55 43° 318° (NW) 15:21:10 29.354 - 29.394 USB, Beacon 29.352 USB
AO-27 02 Aug 15:01:09 15:06:05 43° 261° (W) 15:11:03 436.795 MHz FM
Uosat F 02 Aug 15:21:20 15:24:59 20° 64° (ENE) 15:28:37 435.120 FM
Oscar 19 02 Aug 15:22:39 15:24:57 13° 270° (W) 15:27:17 437.125 CW, 437.150 USB
TMSAT-1 02 Aug 15:23:14 15:28:32 90° 246° (WSW) 15:33:52 436.925 FM
JAS-1B 02 Aug 15:23:40 15:32:42 65° 260° (W) 15:42:35 435.800 - 435.900 CW/SSB
AO-7 02 Aug 15:29:51 15:37:29 42° 61° (ENE) 15:45:07 29.400 - 29.500 MHz
Saudisat 1A 02 Aug 15:43:23 15:47:49 86° 239° (WSW) 15:52:13 436.775 MHz
Gurwin Techsat 1B 02 Aug 15:51:28 15:56:20 37° 263° (W) 16:01:15 435.225 FM
KITSAT 1 02 Aug 16:19:45 16:26:35 32° 253° (WSW) 16:33:24 435.175 FM
OPAL 02 Aug 16:29:42 16:33:57 26° 97° (E) 16:38:13 ?
Uosat F 02 Aug 16:58:32 17:03:24 49° 260° (W) 17:08:18 435.120 FM
JAS-2 02 Aug 17:03:26 17:09:09 24° 62° (ENE) 17:14:31 435.800 - 435.900 CW/SSB, 435.910 FM
TMSAT-1 02 Aug 17:08:32 17:09:09 10° 272° (W) 17:09:46 436.925 FM
RS-15 02 Aug 17:19:52 17:27:21 20° 351° (N) 17:34:53 29.354 - 29.394 USB, Beacon 29.352 USB
JAS-1B 02 Aug 17:21:07 17:25:02 13° 280° (W) 17:29:05 435.800 - 435.900 CW/SSB
AO-7 02 Aug 17:22:13 17:30:08 46° 260° (W) 17:38:06 29.400 - 29.500 MHz
Hamsat 02 Aug 17:42:09 17:45:56 34° 71° (ENE) 17:49:45 145.90 MHz
OPAL 02 Aug 18:08:12 18:12:53 38° 293° (WNW) 18:17:37 ?
JAS-2 02 Aug 18:45:54 18:53:37 73° 258° (WSW) 19:00:45 435.800 - 435.900 CW/SSB, 435.910 FM
STRAND 1 02 Aug 19:01:11 19:05:17 24° 94° (E) 19:09:20 ?
Hamsat 02 Aug 19:19:01 19:22:00 19° 267° (W) 19:25:00 145.90 MHz
SO-67 02 Aug 19:25:44 19:29:11 82° 77° (ENE) 19:32:41 435.3500 MHz FM
